The Dalles, WA

8:26 PM PDT on May 24, 2018 (GMT -0700)
Columbia Gorge Regional-The Dalles

Weather History for KDLS - September, 2013

Change the Weather History Date:

Wednesday, September 25, 2013

  Actual Average Record
Temperature  
Mean Temperature 58 °F -  
Max Temperature 66 °F 76 °F 94 °F (1974)
Min Temperature 51 °F 50 °F 33 °F (1972)
Degree Days  
Heating Degree Days 6    
Growing Degree Days 8 (Base 50)    
Moisture  
Dew Point 44 °F    
Average Humidity 61    
Maximum Humidity 77    
Minimum Humidity 42    
Precipitation  
Precipitation 0.01 in - - ()
Sea Level Pressure  
Sea Level Pressure 29.87 in    
Wind  
Wind Speed 11 mph (WNW)    
Max Wind Speed 17 mph    
Max Gust Speed 26 mph    
Visibility 10 miles    
Events Rain    
Averages and records for this station are not official NWS values.
T = Trace of Precipitation, MM = Missing Value Source: NWS Daily Summary

Daily Weather History Graph

Daily Weather History Graph

Search for Another Location

Airport or City:

Astronomy

Sep. 25, 2013 Rise Set
Actual Time 6:55 AM PDT 6:55 PM PDT
Civil Twilight 6:26 AM PDT 7:25 PM PDT
Nautical Twilight 5:51 AM PDT 7:59 PM PDT
Astronomical Twilight 5:16 AM PDT 8:35 PM PDT
Moon 10:51 PM PDT 1:21 PM PDT
Length of Visible Light 12h 59m
Length of Day
11h 59m
Waning Gibbous, 63% of the Moon is Illuminated
Sep 25
Waning Gibbous
Sep 26
Last Quarter
Oct 4
New
Oct 11
First Quarter
Oct 18
Full

Hourly Weather History & Observations

Time (PDT) Temp. Dew Point Humidity Pressure Visibility Wind Dir Wind Speed Gust Speed Precip Events Conditions
12:53 AM 53.1 °F 43.0 °F 69% 29.83 in 10.0 mi West 9.2 mph - N/A   Overcast
1:53 AM 53.1 °F 44.1 °F 71% 29.82 in 10.0 mi WNW 8.1 mph - N/A   Overcast
2:53 AM 52.0 °F 45.0 °F 77% 29.82 in 10.0 mi WNW 8.1 mph - N/A   Scattered Clouds
3:53 AM 52.0 °F 44.1 °F 74% 29.82 in 10.0 mi WNW 6.9 mph - N/A   Scattered Clouds
4:53 AM 51.1 °F 43.0 °F 74% 29.82 in 10.0 mi WNW 6.9 mph - N/A   Scattered Clouds
5:53 AM 51.1 °F 43.0 °F 74% 29.82 in 10.0 mi West 6.9 mph - N/A   Overcast
6:53 AM 52.0 °F 44.1 °F 74% 29.83 in 10.0 mi WNW 9.2 mph - N/A   Scattered Clouds
7:53 AM 53.1 °F 44.1 °F 71% 29.85 in 10.0 mi WNW 8.1 mph - N/A   Scattered Clouds
8:53 AM 55.0 °F 44.1 °F 67% 29.86 in 10.0 mi NW 10.4 mph - N/A   Overcast
9:53 AM 55.9 °F 44.1 °F 64% 29.88 in 10.0 mi NW 13.8 mph - 0.00 in Rain Light Rain
10:53 AM 57.9 °F 44.1 °F 60% 29.87 in 10.0 mi WNW 15.0 mph 21.9 mph 0.01 in   Mostly Cloudy
11:53 AM 62.1 °F 45.0 °F 53% 29.87 in 10.0 mi NNW 16.1 mph - N/A   Partly Cloudy
12:53 PM 64.0 °F 45.0 °F 50% 29.86 in 10.0 mi NNW 12.7 mph 20.7 mph N/A   Clear
1:53 PM 66.0 °F 42.1 °F 42% 29.86 in 10.0 mi WNW 13.8 mph 21.9 mph N/A   Clear
2:53 PM 66.0 °F 42.1 °F 42% 29.86 in 10.0 mi WNW 16.1 mph 23.0 mph N/A   Overcast
3:53 PM 66.0 °F 43.0 °F 43% 29.87 in 10.0 mi WNW 17.3 mph - N/A   Clear
4:53 PM 62.1 °F 45.0 °F 53% 29.89 in 10.0 mi NW 16.1 mph 21.9 mph N/A   Mostly Cloudy
5:53 PM 61.0 °F 44.1 °F 54% 29.89 in 10.0 mi WNW 17.3 mph 25.3 mph N/A   Clear
6:53 PM 59.0 °F 44.1 °F 58% 29.91 in 10.0 mi West 10.4 mph - N/A   Clear
7:53 PM 57.9 °F 43.0 °F 58% 29.92 in 10.0 mi WNW 10.4 mph 20.7 mph N/A   Clear
8:53 PM 57.0 °F 43.0 °F 59% 29.93 in 10.0 mi Variable 4.6 mph - N/A   Clear
9:53 PM 57.9 °F 42.1 °F 56% 29.94 in 10.0 mi West 13.8 mph 26.5 mph N/A   Clear
10:53 PM 57.0 °F 42.1 °F 57% 29.95 in 10.0 mi WNW 15.0 mph 24.2 mph N/A   Clear
11:53 PM 55.0 °F 44.1 °F 67% 29.95 in 10.0 mi NW 15.0 mph - N/A   Clear